Location: Canterbury Colony
(41.4476°N, 81.9186°W)
Time: 03:16:54
(UTC+00:00)

Daily predictions for brighter satellites

Satellite Brightness Start Highest point End
(mag) Time Altitude Azimuth Time Altitude Azimuth Time Altitude Azimuth
BREEZE-M DEB (TANK) 3.5 01:15:27 10° S 01:18:02 26° ESE 01:23:40 10° ENE
Cosmos 1697 Rocket 3.7 01:17:08 10° N 01:22:10 31° NE 01:27:09 10° ESE
Cosmos 2082 Rocket 3.3 01:24:02 10° SSE 01:28:22 24° E 01:32:45 10° NE
Hubble Space Telescope 2.9 01:29:12 10° S 01:29:55 10° SSE 01:30:39 10° SSE
Cosmos 1833 Rocket 2.8 01:26:28 10° S 01:31:56 53° ESE 01:37:24 10° NNE
IGS 5A 4.2 01:28:25 10° SE 01:32:12 35° ENE 01:36:00 10° N
Cosmos 1953 Rocket 3.6 01:28:16 10° S 01:32:42 69° E 01:37:11 10° NNE
USA 305 3.0 01:29:13 10° NW 01:33:24 73° SW 01:37:34 10° SE
USA 308 2.9 01:29:16 10° NW 01:33:32 80° SW 01:37:45 10° SE
Cosmos 1606 4.5 01:31:17 10° NNE 01:33:44 16° ENE 01:36:10 10° ESE
SPOT 3 Rocket 4.4 01:29:24 10° SE 01:34:06 35° ENE 01:38:49 10° N
Cosmos 1892 3.2 01:30:26 10° SSW 01:34:10 62° W 01:37:56 10° N
Cosmos 1689 Rocket 3.9 01:31:43 10° N 01:34:15 32° WNW 01:36:45 10° SW
Cosmos 2150 Rocket 4.3 01:30:42 10° NNW 01:36:06 78° WSW 01:41:32 10° SSE
USA 186 3.6 01:34:01 10° SSW 01:36:57 30° W 01:39:46 10° NNW
Resurs 1-3 3.6 01:35:03 10° SSE 01:39:26 80° ENE 01:43:50 10° N
Cosmos 2298 Rocket 4.4 01:35:13 10° NNW 01:40:31 66° WSW 01:45:47 10° S
Cosmos 1125 Rocket 3.6 01:36:41 10° NNW 01:42:02 83° WSW 01:47:20 10° SSE
Cosmos 2279 Rocket 4.1 01:40:00 10° N 01:46:08 61° E 01:52:14 10° SSE
Cosmos 1869 4.0 01:47:26 10° NNW 01:51:13 52° W 01:54:57 10° S
Landsat 7 4.0 01:49:11 10° SSE 01:53:47 57° ENE 01:58:27 10° N
COSMOS 2406 3.2 01:49:25 10° SSW 01:55:04 76° ESE 02:00:46 10° NNE
Cosmos 2058 2.9 01:51:07 10° S 01:55:15 68° E 01:59:25 10° NNE
Cosmos 1842 Rocket 4.1 01:51:33 10° N 01:55:50 43° ENE 01:59:20 15° SSE
Cosmos 1825 2.4 01:52:52 10° SSW 01:56:36 73° W 02:00:21 10° N
Cosmos 2369 4.4 01:51:45 10° N 01:57:06 41° ENE 02:01:22 15° SE
USA 306 3.6 01:53:18 10° WNW 01:57:24 46° SW 02:00:51 14° SSE
NOSS 3-4 (A) 3.8 01:52:36 10° SW 01:58:20 65° NW 02:04:30 10° NNE
NOSS 3-4 (C) 3.8 01:52:42 10° SW 01:58:26 66° NW 02:04:36 10° NNE
OBJECT-B 3.5 01:58:37 10° SW 02:00:56 18° W 02:03:15 10° NW
ERS-1 Rocket 4.4 02:00:52 13° ESE 02:03:53 22° ENE 02:07:42 10° NNE
Spot 2 Rocket 4.5 02:01:34 16° ESE 02:05:00 32° ENE 02:09:31 10° N
Cosmos 1656 4.1 02:00:30 10° NNW 02:06:05 63° WSW 02:11:32 10° S
Cosmos 1076 Rocket 4.1 02:02:51 14° SSE 02:06:06 38° E 02:10:07 10° NNE
ATLAS 2AS CENTAUR R/B 3.0 01:59:13 10° SSW 02:07:07 79° ESE 02:14:55 10° NE
Cosmos 1980 Rocket 3.0 02:03:09 10° N 02:08:22 37° ENE 02:12:06 17° ESE
Cosmos 1437 Rocket 3.9 02:05:52 10° NNW 02:09:29 42° W 02:13:10 10° SSW
Resurs 01 Rocket 1.7 02:08:50 11° S 02:13:01 80° WSW 02:17:30 10° NNW
Nadezhda 4 Rocket 4.1 02:08:03 10° SSE 02:13:58 53° E 02:19:59 10° NNE
Cosmos 2322 Rocket 4.5 02:13:24 10° NNE 02:14:59 11° NE 02:16:32 10° ENE
Cosmos 1437 2.9 02:14:42 10° NNW 02:17:26 55° W 02:19:12 19° S
RESURS DK-1 2.4 02:19:01 10° S 02:23:04 55° ESE 02:27:09 10° NE
Cosmos 2098 Rocket 2.2 02:22:43 33° SSE 02:23:41 52° E 02:26:44 10° NNE
GENESIS II 4.4 02:20:53 10° NNW 02:24:43 57° NE 02:26:31 28° ESE
USA 267 3.5 02:20:37 10° ENE 02:26:51 46° SE 02:33:04 10° SSW
USA 245 4.1 02:22:59 19° SSE 02:27:03 67° ENE 02:31:53 10° N
BREEZE-M DEB (TANK) 4.2 02:24:13 10° NW 02:27:35 55° NNE 02:36:57 12° ESE
ATLAS 3B R/B 3.5 02:20:57 10° NNW 02:27:42 44° NE 02:32:46 19° ESE
CENTAUR R/B 4.3 02:21:23 10° NW 02:28:59 38° WSW 02:36:58 10° S
Cosmos 1633 2.4 02:29:09 21° S 02:31:28 82° E 02:35:05 10° N
SPOT 1/Viking Rocket 3.5 02:28:26 20° SSE 02:32:08 88° ENE 02:37:22 10° NNW
MetOp-B 4.2 02:28:47 17° S 02:32:57 81° WSW 02:38:20 10° NNW
ISS -1.1 02:32:19 10° NNW 02:34:40 17° NNE 02:37:00 10° NE
Cosmos 2360 4.2 02:29:36 10° NNW 02:35:19 81° WSW 02:38:55 23° SSE
Cosmos 44 Rocket 3.8 02:31:10 10° SW 02:36:19 68° NW 02:41:33 10° NNE
Cosmos 1933 4.2 02:36:30 10° N 02:40:12 33° ENE 02:41:03 30° ESE
ARIANE 5 R/B 2.9 02:38:33 31° SE 02:40:28 55° ENE 02:44:52 10° N
SL-16 R/B 3.9 02:36:27 10° N 02:40:42 21° NE 02:43:41 14° E
Meteor 2-8 Rocket 4.4 02:36:05 10° N 02:42:18 80° E 02:46:13 24° SSE
JB-3 4.5 02:41:17 10° N 02:45:27 81° WNW 02:48:22 19° SSW
SPOT 5 3.0 02:44:08 33° ESE 02:45:35 47° ENE 02:49:46 10° N
CZ-2C R/B 4.0 02:44:43 10° N 02:49:15 65° WNW 02:53:38 10° SSW
OAO 2 Rocket 4.1 02:48:23 10° WSW 02:52:46 31° SSW 02:53:28 30° S
Cosmos 2221 3.7 02:49:07 10° NNW 02:53:07 38° W 02:56:11 16° SSW
CARTOSAT-1 3.5 02:51:42 36° SSE 02:53:27 89° SW 02:57:48 10° NNW
Cosmos 371 Rocket 3.2 02:58:51 10° NNW 03:03:40 75° ENE 03:05:07 45° SE
Cosmos 923 Rocket 4.5 03:03:16 38° SE 03:04:09 41° ESE 03:09:10 10° NNE
ERBS 2.1 03:02:32 10° NW 03:05:39 82° WNW 03:05:39 82° WNW
Terra 2.0 03:04:43 42° SE 03:06:00 57° ENE 03:10:41 10° N
Cosmos 1697 Rocket 3.7 03:00:57 10° NW 03:06:11 39° WSW 03:09:29 20° SSW
Cosmos 1606 4.2 03:06:08 10° NNW 03:09:29 30° W 03:11:14 20° SW
Cosmos 2082 Rocket 3.1 03:06:39 10° SW 03:12:04 49° WNW 03:17:34 10° NNE
Cosmos 2278 3.7 03:08:38 10° NNW 03:14:19 82° WSW 03:16:22 41° SSE
Cosmos 1766 Rocket 3.8 03:18:52 49° E 03:18:55 49° E 03:23:10 10° NNE
BREEZE-M R/B 4.2 03:14:12 10° SW 03:23:48 - ENE 03:17:24 26° SSW
Cosmos 1812 4.2 03:16:35 10° NNE 03:19:23 25° ENE 03:19:23 25° ENE
Cosmos 2195 Rocket 4.4 03:16:45 27° S 03:20:20 83° W 03:26:30 10° N
Cosmos 1782 2.9 03:19:16 10° N 03:23:14 62° ENE 03:23:14 62° ENE
Cosmos 2151 3.9 03:23:49 26° SW 03:25:46 45° WNW 03:29:52 10° N
Cosmos 2360 Rocket 3.8 03:26:35 10° N 03:31:01 23° NE 03:33:01 19° E
Cosmos 1092 Rocket 4.3 03:29:20 22° SSW 03:33:23 62° W 03:39:38 10° N
GP-B 3.7 03:29:14 10° N 03:33:33 51° W 03:34:52 37° SW
Cosmos 1328 Rocket 3.9 03:29:45 10° N 03:34:03 49° ENE 03:34:03 49° ENE
Cosmos 2112 Rocket 4.1 03:38:50 54° ESE 03:38:59 54° ESE 03:44:09 10° NNE
Cosmos 332 Rocket 3.7 03:34:06 10° NNW 03:39:00 84° WSW 03:39:38 68° S
Meteor 2-3 Rocket 4.2 03:36:27 25° SSW 03:39:38 57° WNW 03:45:15 10° N
Cosmos 1680 Rocket 3.4 03:40:31 62° SE 03:41:03 67° ESE 03:46:18 10° NNE
ERS-1 Rocket 3.7 03:40:52 35° SW 03:42:21 45° W 03:47:11 10° NNW
Cosmos 1809 Rocket 4.3 03:41:14 47° S 03:43:10 83° E 03:49:21 10° N
Cosmos 1151 Rocket 2.9 03:40:22 10° N 03:44:41 86° ENE 03:44:41 86° ENE
Okean 3 Rocket 3.5 03:50:13 76° WSW 03:50:24 78° W 03:54:55 10° N
Cosmos 1980 Rocket 3.4 03:47:19 10° NW 03:52:14 32° WSW 03:53:52 27° SW
BREEZE-M DEB (TANK) 3.3 03:48:34 10° WNW 03:52:34 76° SSW 03:55:45 40° SE
BREEZE M DEB (TANK) 4.1 03:49:49 10° WSW 03:53:55 90° N 04:22:40 10° ENE
H-2A R/B 3.9 03:55:33 10° N 03:59:39 56° WNW 03:59:53 55° W
Cosmos 2322 Rocket 2.3 03:54:37 10° NNW 04:00:14 62° ENE 04:00:59 57° E
Cosmos 1271 Rocket 4.1 03:59:41 10° NNW 04:03:10 32° W 04:03:10 32° W
Meteor 2-21 Rocket 4.3 04:08:05 62° S 04:09:14 85° E 04:15:27 10° N
USA 267 3.9 04:03:33 10° NE 04:09:55 56° NNW 04:16:17 10° WSW
Meteor 2-6 Rocket 3.9 04:04:47 10° N 04:10:15 89° WSW 04:10:37 78° S
ISS -1.7 04:08:44 10° NW 04:10:34 28° NNW 04:10:34 28° NNW
Cosmos 2315 Rocket 4.5 04:10:42 10° N 04:16:44 46° ENE 04:17:33 43° E
ATLAS 3B R/B 3.4 04:11:43 10° NW 04:18:27 44° WSW 04:20:00 39° SW
Cosmos 2237 4.2 04:14:14 10° NNW 04:19:56 68° ENE 04:20:24 65° E
Spot 4 4.0 04:22:24 64° NE 04:22:24 64° NE 04:26:51 10° N
Cosmos 1624 Rocket 3.9 04:17:03 10° NNW 04:22:13 74° ENE 04:22:13 74° ENE
Meteor 1-27 Rocket 4.0 04:16:48 10° N 04:22:17 53° ENE 04:22:32 53° E
Cosmos 1743 Rocket 4.3 04:23:27 47° NE 04:23:27 47° NE 04:26:50 10° NNE
Cosmos 2228 Rocket 4.3 04:19:21 10° N 04:22:34 33° NE 04:22:34 33° NE
Cosmos 1408 Rocket 4.0 04:25:28 57° NW 04:25:28 57° NW 04:29:17 10° N
SL-16 R/B 2.2 04:19:40 10° NNW 04:25:17 64° WSW 04:25:32 63° SW
Cosmos 2219 Rocket 3.7 04:23:28 10° N 04:28:07 26° NE 04:29:33 23° ENE
Cosmos 1553 Rocket 4.5 04:26:29 10° NNW 04:32:18 48° W 04:33:26 43° WSW
Cosmos 1655 Rocket 4.0 04:32:56 61° SW 04:34:03 76° W 04:40:28 10° N
Cosmos 1420 Rocket 4.1 04:32:03 10° NNW 04:37:14 66° ENE 04:37:14 66° ENE
Cosmos 2266 Rocket 3.8 04:37:31 68° SW 04:38:15 78° W 04:44:27 10° N
Meteor 1-10 Rocket 4.2 04:33:24 10° NNW 04:38:56 68° W 04:39:04 68° WSW
USA 234 3.1 04:41:01 61° SE 04:42:20 88° NE 04:48:56 10° NW
COSMOS 2455 3.4 04:44:29 43° E 04:44:29 43° E 04:49:14 10° NE
Terra 4.0 04:43:36 15° W 04:44:06 15° W 04:46:49 10° NW
COBE Rocket 4.3 04:44:51 55° WNW 04:44:51 55° WNW 04:48:46 10° NNW
Sich 1 4.4 04:45:43 33° NE 04:45:43 33° NE 04:48:28 10° NNE
BREEZE-M DEB (TANK) 4.2 04:32:27 10° SW 04:47:26 71° SSE 04:51:53 10° ENE
Cosmos 1452 Rocket 4.2 04:47:01 10° N 04:52:03 45° ENE 04:52:03 45° ENE
Meteor 1-20 Rocket 4.5 04:53:51 56° ENE 04:53:51 56° ENE 04:58:54 10° NNE
ALOS 2 3.3 04:56:16 51° N 04:56:16 51° N 04:59:36 10° N
Cosmos 883 Rocket 4.4 04:51:10 10° N 04:57:23 74° W 04:57:48 71° SW
Cosmos 2056 Rocket 4.1 04:56:01 10° NNW 05:00:39 48° W 05:00:39 48° W
Cosmos 972 Rocket 4.1 05:02:20 77° NNE 05:02:20 77° NNE 05:07:10 10° NNE
ATLAS 5 CENTAUR R/B 4.1 05:04:01 10° NNW 05:08:34 25° NE 05:12:56 13° E
Cosmos 2333 Rocket 2.3 05:03:57 10° NNW 05:09:34 64° ENE 05:09:38 64° ENE
Cosmos 2360 Rocket 2.6 05:09:52 10° NNW 05:14:45 52° W 05:14:45 52° W
Meteor 1-25 Rocket 4.2 05:17:03 81° NNE 05:17:03 81° NNE 05:22:22 10° N
Nadezhda 2 Rocket 4.3 05:20:58 83° SSW 05:21:15 89° WNW 05:27:38 10° N
Cosmos 2322 3.7 05:19:03 10° NNW 05:24:37 79° NE 05:24:37 79° NE
NOSS 3-1 (C) 4.1 05:20:58 10° NNW 05:28:39 81° NE 05:31:18 50° SE
Meteor 1-19 Rocket 4.2 05:26:18 10° N 05:31:45 75° NE 05:31:45 75° NE
Cosmos 2297 Rocket 3.6 05:37:04 26° E 05:37:04 26° E 05:40:56 10° NE
USA 229 DEB 4.2 05:32:45 10° NNW 05:40:04 62° NE 05:43:12 37° ESE
USA 229 4.2 05:32:51 10° NNW 05:40:09 62° NE 05:43:21 36° ESE
Cosmos 1244 Rocket 4.4 05:40:47 68° W 05:41:02 68° W 05:47:11 10° N
Cosmos 2237 Rocket 3.7 05:37:36 10° N 05:42:34 30° NE 05:44:36 24° E
Cosmos 2322 Rocket 4.1 05:40:01 10° WNW 05:42:47 17° W 05:42:47 17° W
Cosmos 2227 Rocket 3.7 05:47:43 24° E 05:47:43 24° E 05:51:35 10° NE
PSLV R/B 4.3 05:44:20 10° NNE 05:48:12 59° NNE 05:48:12 59° NNE
Cosmos 2285 Rocket 4.2 05:52:19 10° NNW 05:58:13 56° W 05:58:13 56° W
Meteor 2-4 Rocket 3.8 05:54:06 10° N 06:00:03 75° E 06:00:14 75° E
NOSS 3-1 (A) 4.1 05:52:51 10° NNW 06:00:32 79° NE 06:04:02 41° SE
CZ-2D R/B 3.9 05:56:50 10° NE 06:00:48 21° E 06:01:02 21° E
COSMOS 2428 2.9 06:01:19 10° NNW 06:06:19 61° WNW 06:06:19 61° WNW
Cosmos 1470 Rocket 4.5 06:09:11 45° N 06:09:11 45° N 06:12:16 10° N
Cosmos 2219 Rocket 2.9 06:06:56 10° NW 06:11:15 43° WNW 06:11:15 43° WNW
Meteor 1-5 Rocket 4.1 06:13:34 87° N 06:13:34 87° N 06:19:17 10° N
Cosmos 1933 Rocket 4.3 06:16:00 51° NNE 06:16:00 51° NNE 06:19:26 10° N
Thor Agena Rocket 4.2 06:10:42 10° N 06:15:18 43° WNW 06:15:18 43° WNW
Helios 1A 4.2 06:17:20 38° NE 06:17:20 38° NE 06:20:50 10° N
APEX 4.1 06:20:03 78° WNW 06:20:03 78° WNW 06:26:18 10° NNE
Okean 1-7 4.0 06:17:40 10° N 06:20:56 44° NE 06:20:56 44° NE
Cosmos 1302 Rocket 4.1 06:18:27 10° NNW 06:23:39 67° ENE 06:23:40 67° ENE
Meteor 2-17 Rocket 4.2 06:23:27 77° WSW 06:23:46 80° W 06:29:50 10° N
COSMOS 2455 4.2 06:27:36 26° W 06:29:36 32° NW 06:34:57 10° NNE
Cosmos 1666 4.4 06:31:32 29° NNW 06:31:32 29° NNW 06:33:45 10° N
Cosmos 909 Rocket 4.2 06:32:17 58° SE 06:33:03 62° ESE 06:40:13 10° NE
Cosmos 2219 3.2 06:34:37 69° ESE 06:34:45 69° ESE 06:40:29 10° NNE
Cosmos 1709 Rocket 3.8 06:37:29 71° SSW 06:38:12 83° W 06:44:35 10° N
NOSS 0 Rocket 3.8 06:32:17 10° NNW 06:38:29 69° WSW 06:38:37 69° WSW
Helios 1B rocket 4.3 06:35:49 10° NE 06:38:41 22° E 06:38:41 22° E
Cosmos 1066 Rocket 4.5 06:34:53 10° N 06:40:45 66° E 06:41:47 55° SE
Timation 2 Rocket 3.9 06:46:12 57° SE 06:46:47 60° ESE 06:52:45 10° NNE
MOZ.5/SAFIR/RUBIN 5/SL-8 3.8 06:47:17 78° N 06:47:17 78° N 06:51:43 10° NNW
Cosmos 2084 Rocket 4.2 06:48:01 10° NNW 06:52:08 49° NE 06:52:38 46° ENE
Cosmos 2333 Rocket 4.1 06:49:36 10° WNW 06:51:37 16° WNW 06:51:37 16° WNW
ATLAS 5 CENTAUR R/B 2.3 06:47:52 10° NW 06:53:40 73° WSW 06:54:21 66° SSW
Cosmos 2082 4.2 06:54:29 44° SE 06:55:11 46° ESE 07:00:38 10° NE
Cosmos 1703 Rocket 4.3 06:52:10 10° NNW 06:55:23 44° NW 06:55:23 44° NW
Cosmos 2251 Rocket 4.2 06:56:04 41° ESE 06:56:35 42° ESE 07:01:33 10° NNE
Meteor 1-11 Rocket 3.5 06:56:39 73° WSW 06:57:02 77° W 07:02:35 10° N
Cosmos 1536 3.6 06:58:20 49° N 06:58:20 49° N 07:01:22 10° N
Lacrosse 5 1.8 06:57:56 79° ESE 06:57:56 79° ESE 07:02:52 10° NE
Cosmos 2184 Rocket 4.4 06:59:24 40° SE 07:01:14 54° E 07:07:19 10° NNE
SL-16 R/B 2.7 07:00:08 40° SE 07:02:25 71° ENE 07:08:35 10° N
Cosmos 1980 3.7 06:56:59 10° NNW 07:02:27 61° WSW 07:02:27 61° WSW
Resurs 1-4 Rocket 2.0 06:57:32 10° NNE 07:02:52 76° ESE 07:03:26 68° SSE
Cosmos 1544 4.4 07:08:59 34° NNW 07:08:59 34° NNW 07:11:19 10° N
Cosmos 1733 Rocket 3.8 07:13:20 43° ESE 07:13:47 45° E 07:18:02 10° NNE
Cosmos 2297 Rocket 2.8 07:18:52 39° W 07:20:01 43° WNW 07:25:26 10° NNE
AQUA 3.8 07:16:26 10° NNE 07:21:12 70° ESE 07:21:46 63° SSE
NPP 3.5 07:17:39 10° NNE 07:23:04 89° ESE 07:24:07 60° SSW
Cosmos 2074 Rocket 3.9 07:23:14 49° S 07:25:06 87° E 07:31:21 10° N
Cosmos 2237 Rocket 2.7 07:21:25 10° NW 07:26:22 40° W 07:26:22 40° W
ASTEX 1 4.1 07:29:44 37° W 07:29:44 37° W 07:34:01 10° NNW
Cosmos 2227 Rocket 2.7 07:29:32 40° W 07:30:49 47° WNW 07:36:17 10° NNE
ADEOS Rocket 2.7 07:29:11 40° SSE 07:31:20 87° ENE 07:36:51 10° NNW
Cosmos 1743 3.7 07:39:45 36° NW 07:39:45 36° NW 07:42:47 10° N
CZ-2D R/B 2.5 07:35:54 10° N 07:41:07 52° WNW 07:42:21 43° WSW
Cosmos 192 4.3 07:36:39 10° NNW 07:41:36 79° ENE 07:43:44 34° SSE
Cosmos 2181 Rocket 4.4 07:36:00 10° NNW 07:41:59 45° W 07:43:19 39° WSW
Meteor 1-28 Rocket 4.0 07:41:29 35° ESE 07:42:36 47° ENE 07:46:11 10° N
ADEOS II 2.0 07:37:49 10° NNE 07:43:06 81° ESE 07:44:45 45° S
Meteor 2-9 Rocket 4.1 07:43:10 43° S 07:44:56 77° E 07:50:16 10° NNE
IRS-1D 3.7 07:41:58 10° NNE 07:46:54 64° ESE 07:48:42 38° SSE
SL-16 R/B 2.1 07:45:06 10° NNW 07:50:46 77° WSW 07:53:48 29° SSE
Cosmos 614 Rocket 4.0 07:50:06 48° SW 07:51:26 70° WNW 07:56:39 10° NNE
Iridium 4 Rocket 3.8 07:47:00 10° N 07:52:32 77° E 07:55:47 28° S
MINOTAUR 4 R/B 4.0 07:55:21 70° SSE 07:55:42 84° ENE 07:59:17 10° NNW
Cosmos 2263 Rocket 2.7 07:54:29 29° S 07:57:07 53° ESE 08:02:38 10° NNE
Cosmos 1975 2.7 07:57:17 60° SSW 07:57:58 87° W 08:02:05 10° N
ATLAS CENTAUR R/B 2.9 07:57:40 20° SE 07:58:36 22° ESE 08:01:39 10° ENE
Cosmos 2221 Rocket 3.8 07:56:15 10° NNW 08:00:42 54° W 08:01:25 48° SW
Landsat 4 3.6 07:57:53 10° NNE 08:01:35 80° E 08:02:12 60° S
CZ-4C R/B 3.6 07:54:34 10° NNW 08:01:48 59° NE 08:10:07 10° SE
Cosmos 407 Rocket 3.6 08:01:06 35° S 08:03:22 73° ESE 08:08:37 10° NNE
Cosmos 1461 3.1 08:05:09 45° SSW 08:06:30 79° ESE 08:11:00 10° NE
Cosmos 1707 3.3 08:04:05 10° N 08:07:52 55° E 08:10:01 23° SSE
Cosmos 2344 3.6 08:04:50 28° SSW 08:09:05 73° ESE 08:16:40 10° NE
Meteor 1-29 3.0 08:07:25 10° N 08:10:40 55° WNW 08:10:46 55° W
Cosmos 2341 Rocket 4.3 08:06:43 19° S 08:11:14 66° E 08:17:24 10° NNE
Helios 1B rocket 3.5 08:10:44 10° N 08:14:17 29° WNW 08:14:58 28° W
Cosmos 1674 Rocket 3.5 08:12:33 10° NNW 08:16:56 64° W 08:18:38 35° SSW
Cosmos 1238 Rocket 2.3 08:18:43 54° W 08:18:48 54° W 08:22:03 10° N
Cosmos 1842 3.8 08:18:31 10° NNW 08:22:05 36° W 08:22:21 36° WSW
Nadezhda 3 Rocket 4.1 08:16:15 10° NNW 08:22:31 60° W 08:26:34 22° SSW
Cosmos 1943 3.9 08:24:41 10° NNW 08:30:20 56° ENE 08:35:54 10° SE
BREEZE-M DEB (TANK) 2.4 08:30:27 47° WSW 08:31:04 77° NNW 08:33:19 10° ENE
IRS-P3 4.3 08:26:47 10° NNE 08:32:08 73° ESE 08:36:16 17° S
IDEFIX/ARIANE 42P 2.6 08:28:17 10° N 08:33:25 63° WNW 08:36:25 25° SSW
CBERS-1 4.1 08:28:28 10° N 08:33:32 61° WNW 08:36:24 25° SW
Cosmos 1975 Rocket 4.1 08:30:56 10° N 08:35:12 46° ENE 08:39:22 10° SSE
ATLAS 5 CENTAUR R/B 4.4 08:35:19 10° W 08:35:46 11° W 08:35:46 11° W
Cosmos 1378 Rocket 4.0 08:33:55 10° NNW 08:38:03 42° W 08:39:54 27° SW
CZ-2C R/B 3.8 08:34:04 10° NNE 08:38:11 32° E 08:42:18 10° SSE
Cosmos 1340 3.4 08:36:23 10° N 08:40:04 52° ENE 08:43:42 10° SSE
Lacrosse 5 3.6 08:37:08 10° W 08:41:15 25° NNW 08:45:27 10° NNE
Resurs 1-4 Rocket 4.1 08:39:03 10° NNW 08:42:01 15° WNW 08:44:30 11° W
USA 215 3.7 08:36:31 10° NE 08:42:55 55° SE 08:47:58 17° SSW
Cosmos 1400 Rocket 3.9 08:40:37 10° SSE 08:44:15 41° E 08:47:56 10° NNE
Cosmos 1626 3.8 08:40:54 10° N 08:44:18 34° ENE 08:47:41 10° SE
Cosmos 1908 Rocket 3.8 08:42:20 26° SW 08:44:27 49° W 08:48:40 10° N
Cosmos 1356 Rocket 4.1 08:44:46 26° WSW 08:46:21 36° WNW 08:50:06 10° N
SL-16 R/B 3.9 08:45:15 17° WSW 08:46:33 18° W 08:50:36 10° NW
Cosmos 1674 2.8 08:46:38 10° N 08:50:29 78° E 08:54:17 10° S
Meteor 1-12 Rocket 4.4 08:45:08 10° S 08:50:39 77° E 08:56:23 10° NNE
BREEZE-M DEB (TANK) 3.9 08:45:45 13° WSW 08:54:46 62° NNW 08:58:01 10° NE
Cosmos 1190 Rocket 4.3 08:51:32 20° SW 08:55:01 54° WNW 09:00:15 10° N
SL-8 R/B 4.0 08:53:11 17° WSW 08:56:48 65° NNW 09:01:36 10° ENE
Cosmos 1140 Rocket 4.2 08:54:55 19° SW 08:58:14 41° WNW 09:03:11 10° N
MSX 4.2 08:59:58 10° N 09:05:27 49° WNW 09:10:10 14° SW
CZ-4B R/B 3.3 09:01:08 10° NNE 09:06:01 80° WNW 09:10:42 10° SSW
ASTRO E2 4.3 09:05:37 15° SSW 09:07:06 19° S 09:09:55 10° SE
CZ-4C R/B 4.1 09:04:26 14° SSW 09:07:29 36° W 09:11:24 10° NNW
ERS-1 4.5 09:02:49 10° N 09:07:47 67° WNW 09:12:28 11° SSW
Cosmos 44 3.3 09:03:51 10° NW 09:09:02 68° WSW 09:13:52 10° SSE
Cosmos 1954 Rocket 4.1 09:04:41 15° SSW 09:09:09 66° WNW 09:14:28 10° NNE
Cosmos 1025 Rocket 3.6 09:04:57 10° N 09:09:13 60° E 09:13:30 10° SSE
BREEZE-M DEB (TANK) 2.8 09:07:10 10° WNW 09:10:12 63° NNE 09:13:25 10° ESE
ARIANE 5 R/B 2.7 09:05:34 10° N 09:10:40 62° WNW 09:15:40 11° SSW
Cosmos 1844 Rocket 3.7 09:05:29 10° S 09:10:47 44° ESE 09:16:08 10° NE
FENGYUN 3A 4.2 09:12:23 10° NNE 09:17:46 61° E 09:23:05 10° S
Cosmos 1603 3.7 09:12:18 10° NNW 09:17:49 60° WSW 09:23:20 10° S
CZ-2D R/B 3.5 09:14:30 10° N 09:18:27 61° WNW 09:22:27 10° SSW
Milstar 3 4.1 09:15:44 11° SSW 09:20:34 22° SSE 09:25:46 10° ESE
ADEOS II 4.1 09:19:26 10° NNW 09:22:05 14° WNW 09:24:43 10° W
Spot 4 Rocket 4.0 09:17:50 10° NNE 09:23:00 81° WNW 09:28:09 10° SSW
Okean 2 Rocket 3.4 09:19:22 10° S 09:23:50 73° E 09:28:22 10° NNE
CZ-2C R/B 2.9 09:21:31 10° NNE 09:25:14 73° ESE 09:28:59 10° S
Cosmos 1782 Rocket 4.5 09:23:30 12° SW 09:27:04 31° WNW 09:30:59 10° NNW
Sich 1 Rocket 3.6 09:25:33 10° SSW 09:29:53 66° W 09:34:18 10° N
Cosmos 1805 3.7 09:26:48 10° SSW 09:30:31 44° WNW 09:34:17 10° N
MOS 1 Rocket 3.9 09:27:19 10° SSE 09:32:20 71° ENE 09:37:37 10° N
Cosmos 2366 rocket 4.5 09:27:28 10° SSW 09:33:30 45° WNW 09:39:35 10° N
CZ-3 R/B 4.3 09:15:06 10° SW 09:37:14 31° S 09:45:11 10° ESE
ATLAS CENTAUR R/B 2.4 09:33:56 10° WSW 09:37:17 30° NW 09:40:49 10° NNE
ATLAS 2AS CENTAUR R/B 4.4 09:33:40 10° NNW 09:40:29 39° NE 09:46:47 10° ESE
Cosmos 1346 Rocket 3.0 09:36:53 10° N 09:40:48 77° ENE 09:44:41 10° SSE
Cosmos 2263 Rocket 3.6 09:36:45 10° WSW 09:41:21 25° NW 09:45:58 10° N
Cosmos 2151 Rocket 3.6 09:38:24 10° S 09:42:47 89° W 09:47:13 10° N
PAYLOAD A 4.4 09:38:54 10° N 09:44:12 53° WNW 09:49:21 10° SSW
SL-14 R/B 3.2 09:40:32 10° NNW 09:44:23 66° W 09:48:16 10° S
Cosmos 1726 2.9 09:41:10 10° S 09:44:43 53° E 09:48:18 10° NNE
